EIN156 EIDW-EGLL

Flight info

Callsign EIN156
Flight time 0h 48m
Altitude 33000
Route ENDEQ3J ENDEQ Q36 NUGRA
Aircraft A20N/M-SDE2E3FGHIRWXY/LB1

Departure

Time 2026-04-30 17:58
Airport Dublin Airport (EIDW)

Arrival

Time 2026-04-30 18:46
Airport London Heathrow Airport (EGLL)
Time Latitude Longitude Altitude Speed Heading
2026-04-30 17:39 53.42672 -6.24637 251 ft 0 kts 156°
2026-04-30 17:47 53.42719 -6.24686 251 ft 2 kts 112°
2026-04-30 17:48 53.42704 -6.24779 251 ft 2 kts 59°
2026-04-30 17:48 53.42678 -6.24840 251 ft 2 kts 48°
2026-04-30 17:49 53.42629 -6.24887 251 ft 2 kts 338°
2026-04-30 17:50 53.42612 -6.24875 251 ft 0 kts 342°
2026-04-30 17:53 53.42849 -6.25290 251 ft 13 kts 334°
2026-04-30 17:54 53.43311 -6.25617 251 ft 20 kts 335°
2026-04-30 17:55 53.43377 -6.24943 251 ft 17 kts 95°
2026-04-30 17:56 53.43527 -6.24643 251 ft 4 kts 274°
2026-04-30 17:57 53.43711 -6.27947 523 ft 167 kts 275°
2026-04-30 17:58 53.45658 -6.32425 2501 ft 180 kts 327°
2026-04-30 17:59 53.50530 -6.35489 4570 ft 235 kts 24°
2026-04-30 18:00 53.52647 -6.26570 7449 ft 252 kts 98°
2026-04-30 18:00 53.52372 -6.17130 9060 ft 288 kts 96°
2026-04-30 18:01 53.52248 -6.10484 10713 ft 299 kts 97°
2026-04-30 18:02 53.51159 -5.99904 12300 ft 339 kts 107°
2026-04-30 18:02 53.49587 -5.89062 14424 ft 356 kts 108°
2026-04-30 18:03 53.47889 -5.76530 16607 ft 374 kts 107°
2026-04-30 18:04 53.46343 -5.64049 18537 ft 390 kts 107°
2026-04-30 18:05 53.44403 -5.45553 21011 ft 418 kts 98°
2026-04-30 18:06 53.43932 -5.25110 23282 ft 441 kts 98°
2026-04-30 18:07 53.43323 -5.03926 25371 ft 458 kts 99°
2026-04-30 18:08 53.42791 -4.87686 26684 ft 473 kts 99°
2026-04-30 18:09 53.42038 -4.65264 28964 ft 475 kts 99°
2026-04-30 18:10 53.41260 -4.43207 31158 ft 473 kts 101°
2026-04-30 18:11 53.40433 -4.21001 32693 ft 483 kts 102°
2026-04-30 18:11 53.39770 -4.03876 33105 ft 489 kts 102°
2026-04-30 18:13 53.38601 -3.75768 33116 ft 495 kts 103°
2026-04-30 18:13 53.37026 -3.61534 33129 ft 508 kts 115°
2026-04-30 18:14 53.34109 -3.48446 33143 ft 518 kts 124°
2026-04-30 18:15 53.29797 -3.31983 33144 ft 539 kts 124°
2026-04-30 18:15 53.25280 -3.14532 33141 ft 541 kts 124°
2026-04-30 18:16 53.19289 -2.91623 33143 ft 541 kts 123°
2026-04-30 18:17 53.16298 -2.80275 33146 ft 541 kts 123°
2026-04-30 18:18 53.11755 -2.63137 33153 ft 541 kts 123°
2026-04-30 18:18 53.08714 -2.51742 33159 ft 542 kts 123°
2026-04-30 18:19 53.05606 -2.40913 33166 ft 534 kts 130°
2026-04-30 18:19 53.02025 -2.32361 33082 ft 517 kts 142°
2026-04-30 18:19 52.99639 -2.28106 32833 ft 505 kts 149°
2026-04-30 18:20 52.97304 -2.24691 32610 ft 496 kts 154°
2026-04-30 18:20 52.94989 -2.21861 32400 ft 488 kts 159°
2026-04-30 18:20 52.92730 -2.19452 32203 ft 485 kts 161°
2026-04-30 18:21 52.88897 -2.15527 32104 ft 485 kts 161°
2026-04-30 18:21 52.85459 -2.12026 32072 ft 486 kts 161°
2026-04-30 18:22 52.80827 -2.07268 32053 ft 487 kts 161°
2026-04-30 18:22 52.73994 -2.00199 32068 ft 488 kts 161°
2026-04-30 18:23 52.68670 -1.94707 31987 ft 483 kts 147°
2026-04-30 18:23 52.66435 -1.92543 31713 ft 476 kts 149°
2026-04-30 18:23 52.63995 -1.90070 30811 ft 478 kts 147°
2026-04-30 18:24 52.58901 -1.84699 29325 ft 443 kts 147°
2026-04-30 18:24 52.56377 -1.82050 28555 ft 433 kts 147°
2026-04-30 18:24 52.54140 -1.79721 27871 ft 434 kts 147°
2026-04-30 18:25 52.51640 -1.77135 27108 ft 435 kts 148°
2026-04-30 18:25 52.46931 -1.72297 25681 ft 438 kts 148°
2026-04-30 18:25 52.44619 -1.69930 24984 ft 439 kts 148°
2026-04-30 18:26 52.39994 -1.65209 23598 ft 442 kts 148°
2026-04-30 18:26 52.37733 -1.62904 22922 ft 443 kts 148°
2026-04-30 18:26 52.35384 -1.60511 22222 ft 444 kts 148°
2026-04-30 18:27 52.30812 -1.55861 20868 ft 446 kts 148°
2026-04-30 18:27 52.28489 -1.53504 20356 ft 446 kts 148°
2026-04-30 18:28 52.23821 -1.48778 20015 ft 402 kts 147°
2026-04-30 18:28 52.21785 -1.46549 19769 ft 399 kts 143°
2026-04-30 18:28 52.17673 -1.41088 18846 ft 392 kts 139°
2026-04-30 18:29 52.15710 -1.38332 18390 ft 388 kts 139°
2026-04-30 18:29 52.10025 -1.30360 17052 ft 380 kts 139°
2026-04-30 18:30 52.06953 -1.26069 16437 ft 378 kts 140°
2026-04-30 18:30 52.02705 -1.20166 15413 ft 371 kts 140°
2026-04-30 18:31 52.00935 -1.17715 14982 ft 369 kts 140°
2026-04-30 18:31 51.97625 -1.13142 14169 ft 364 kts 140°
2026-04-30 18:32 51.94317 -1.08580 13342 ft 356 kts 140°
2026-04-30 18:32 51.92701 -1.06353 12931 ft 352 kts 140°
2026-04-30 18:32 51.89826 -1.02399 12190 ft 346 kts 140°
2026-04-30 18:33 51.89085 -1.01385 11996 ft 344 kts 140°
2026-04-30 18:33 51.85458 -0.96150 11007 ft 338 kts 129°
2026-04-30 18:33 51.84222 -0.92963 10540 ft 334 kts 117°
2026-04-30 18:34 51.83172 -0.89543 10049 ft 324 kts 115°
2026-04-30 18:34 51.81305 -0.83242 9075 ft 289 kts 115°
2026-04-30 18:34 51.80447 -0.80379 8594 ft 276 kts 116°
2026-04-30 18:35 51.79594 -0.77628 8136 ft 264 kts 121°
2026-04-30 18:35 51.78318 -0.75658 7857 ft 246 kts 156°
2026-04-30 18:35 51.76625 -0.75048 7621 ft 247 kts 182°
2026-04-30 18:36 51.73193 -0.75700 7021 ft 245 kts 187°
2026-04-30 18:36 51.71500 -0.76049 6650 ft 243 kts 187°
2026-04-30 18:36 51.70271 -0.76282 6376 ft 244 kts 186°
2026-04-30 18:37 51.69334 -0.76450 6168 ft 245 kts 186°
2026-04-30 18:37 51.68251 -0.76637 5934 ft 245 kts 185°
2026-04-30 18:37 51.66539 -0.76929 5555 ft 236 kts 184°
2026-04-30 18:37 51.64948 -0.77187 5174 ft 224 kts 183°
2026-04-30 18:38 51.63403 -0.77432 4790 ft 219 kts 183°
2026-04-30 18:38 51.61882 -0.77668 4445 ft 219 kts 182°
2026-04-30 18:38 51.60421 -0.77893 4206 ft 220 kts 182°
2026-04-30 18:38 51.59054 -0.78106 3975 ft 217 kts 182°
2026-04-30 18:39 51.57616 -0.78330 3728 ft 214 kts 182°
2026-04-30 18:39 51.56196 -0.78552 3504 ft 210 kts 182°
2026-04-30 18:39 51.54794 -0.78772 3278 ft 206 kts 181°
2026-04-30 18:39 51.53410 -0.78988 3094 ft 200 kts 181°
2026-04-30 18:40 51.52252 -0.79161 3077 ft 199 kts 183°
2026-04-30 18:40 51.50911 -0.79323 3044 ft 202 kts 175°
2026-04-30 18:40 51.49734 -0.78795 3039 ft 187 kts 146°
2026-04-30 18:40 51.48848 -0.77590 3019 ft 171 kts 128°
2026-04-30 18:41 51.48103 -0.76253 3033 ft 170 kts 126°
2026-04-30 18:41 51.47546 -0.74740 3004 ft 163 kts 99°
2026-04-30 18:41 51.47478 -0.73099 2929 ft 160 kts 83°
2026-04-30 18:41 51.47570 -0.71475 2802 ft 159 kts 80°
2026-04-30 18:42 51.47657 -0.69742 2667 ft 159 kts 82°
2026-04-30 18:42 51.47720 -0.66234 2247 ft 158 kts 86°
2026-04-30 18:42 51.47725 -0.64493 2042 ft 157 kts 86°
2026-04-30 18:45 51.47751 -0.48931 152 ft 123 kts 89°
2026-04-30 18:45 51.47757 -0.47596 87 ft 107 kts 88°
2026-04-30 18:45 51.47758 -0.46646 83 ft 65 kts 88°
2026-04-30 18:46 51.47736 -0.46220 82 ft 27 kts 120°
2026-04-30 18:46 51.47666 -0.46101 81 ft 11 kts 147°
2026-04-30 18:46 51.47622 -0.46064 82 ft 6 kts 168°
2026-04-30 18:46 51.47577 -0.46064 83 ft 6 kts 198°
2026-04-30 18:47 51.47528 -0.46053 83 ft 14 kts 125°